Wilmington, NC

1:06 PM EDT on July 28, 2017 (GMT -0400)
Wilmington International

Weather History for KILM - April, 2013

Change the Weather History Date:

Thursday, April 25, 2013

  Actual Average Record
Temperature  
Mean Temperature 63 °F 65 °F  
Max Temperature 76 °F 76 °F 91 °F (1948)
Min Temperature 50 °F 54 °F 39 °F (1875)
Degree Days  
Heating Degree Days 2 3  
Month to date heating degree days 125 119  
Since 1 July heating degree days 2402 2371  
Cooling Degree Days 0 3  
Month to date cooling degree days 43 50  
Year to date cooling degree days 57 71  
Growing Degree Days 15 (Base 50)    
Moisture  
Dew Point 57 °F    
Average Humidity 73    
Maximum Humidity 89    
Minimum Humidity 57    
Precipitation  
Precipitation 0.02 in 0.09 in 1.47 in (2003)
Month to date precipitation 4.31 2.35  
Year to date precipitation 14.02 13.94  
Snow  
Snow 0.00 in 0.00 in - ()
Month to date snowfall 0.0 0.0  
Since 1 July snowfall T 1.7  
Snow Depth 0.00 in    
Sea Level Pressure  
Sea Level Pressure 30.17 in    
Wind  
Wind Speed 7 mph (East)    
Max Wind Speed 20 mph    
Max Gust Speed 25 mph    
Visibility 10 miles    
Events Rain    
T = Trace of Precipitation, MM = Missing Value Source: NWS Daily Summary

Daily Weather History Graph

Daily Weather History Graph

Search for Another Location

Airport or City:

Trip Planner

Search our weather history database for the weather conditions in past years. The results will help you decide how hot, cold, wet, or windy it might be!

Date:

Astronomy

Apr. 25, 2013 Rise Set
Actual Time 6:28 AM EDT 7:51 PM EDT
Civil Twilight 6:01 AM EDT 8:17 PM EDT
Nautical Twilight 5:30 AM EDT 8:49 PM EDT
Astronomical Twilight 4:57 AM EDT 9:22 PM EDT
Moon 8:00 PM EDT (4/25) 6:09 AM EDT (4/25)
Length of Visible Light 14h 15m
Length of Day
13h 23m
Full, 100% of the Moon is Illuminated
Apr 25
Full
Apr 25
Full
May 2
Last Quarter
May 9
New
May 18
First Quarter

Hourly Weather History & Observations

Time (EDT) Temp. Dew Point Humidity Pressure Visibility Wind Dir Wind Speed Gust Speed Precip Events Conditions
12:53 AM 66.0 °F 59.0 °F 78% 30.09 in 10.0 mi SSW 8.1 mph - N/A   Clear
1:53 AM 64.9 °F 60.1 °F 84% 30.08 in 10.0 mi SSW 8.1 mph - N/A   Clear
2:53 AM 64.9 °F 60.1 °F 84% 30.07 in 10.0 mi SSW 9.2 mph - N/A   Clear
3:53 AM 64.0 °F 61.0 °F 90% 30.09 in 10.0 mi SW 6.9 mph - N/A   Clear
4:53 AM 64.9 °F 61.0 °F 87% 30.10 in 10.0 mi SW 5.8 mph - N/A   Overcast
5:53 AM 64.9 °F 61.0 °F 87% 30.12 in 10.0 mi SW 5.8 mph - N/A   Overcast
6:53 AM 64.0 °F 61.0 °F 90% 30.13 in 10.0 mi SSW 4.6 mph - N/A   Overcast
7:53 AM 66.0 °F 61.0 °F 84% 30.15 in 10.0 mi West 4.6 mph - N/A   Overcast
8:53 AM 66.0 °F 60.1 °F 81% 30.17 in 10.0 mi WNW 4.6 mph - N/A   Overcast
9:53 AM 68.0 °F 60.1 °F 76% 30.17 in 10.0 mi NW 6.9 mph - N/A   Mostly Cloudy
10:53 AM 69.1 °F 59.0 °F 70% 30.18 in 10.0 mi North 10.4 mph - N/A   Overcast
11:53 AM 71.1 °F 59.0 °F 66% 30.18 in 10.0 mi NNW 6.9 mph - N/A   Overcast
12:53 PM 73.0 °F 57.9 °F 59% 30.18 in 10.0 mi NNE 8.1 mph - N/A   Mostly Cloudy
1:53 PM 72.0 °F 59.0 °F 64% 30.17 in 10.0 mi ESE 9.2 mph - N/A   Mostly Cloudy
2:53 PM 70.0 °F 55.9 °F 61% 30.18 in 10.0 mi East 8.1 mph - N/A   Mostly Cloudy
3:53 PM 63.0 °F 55.0 °F 75% 30.19 in 10.0 mi East 12.7 mph 20.7 mph N/A   Overcast
4:53 PM 60.1 °F 55.0 °F 83% 30.19 in 5.0 mi East 5.8 mph - 0.01 in Rain Rain
5:30 PM 59.0 °F 55.4 °F 88% 30.20 in 10.0 mi East 8.1 mph 16.1 mph 0.01 in   Overcast
5:46 PM 59.0 °F 55.4 °F 88% 30.21 in 10.0 mi East 10.4 mph - 0.01 in   Overcast
5:53 PM 59.0 °F 55.0 °F 87% 30.21 in 10.0 mi East 8.1 mph - 0.01 in   Overcast
6:53 PM 59.0 °F 54.0 °F 83% 30.22 in 10.0 mi East 9.2 mph - N/A   Overcast
7:53 PM 57.9 °F 53.1 °F 84% 30.22 in 10.0 mi East 8.1 mph - N/A   Mostly Cloudy
8:53 PM 57.0 °F 52.0 °F 83% 30.25 in 10.0 mi ENE 5.8 mph - N/A   Partly Cloudy
9:53 PM 57.0 °F 52.0 °F 83% 30.27 in 10.0 mi East 5.8 mph - N/A   Scattered Clouds
10:53 PM 55.0 °F 51.1 °F 86% 30.27 in 10.0 mi NE 6.9 mph - N/A   Clear
11:53 PM 53.1 °F 50.0 °F 89% 30.27 in 10.0 mi NE 4.6 mph - N/A   Clear